Hoffman, NC

3:15 AM EDT on September 28, 2016 (GMT -0400)
Mackall Army Air Field

Weather History for KHFF - June, 2013

Change the Weather History Date:

Friday, June 21, 2013

  Actual Average Record
Temperature  
Mean Temperature 74 °F -  
Max Temperature 87 °F 85 °F 101 °F (2011)
Min Temperature 60 °F 68 °F 60 °F (2005)
Cooling Degree Days 8    
Growing Degree Days 24 (Base 50)    
Moisture  
Dew Point 56 °F    
Average Humidity 57    
Maximum Humidity 89    
Minimum Humidity 22    
Precipitation  
Precipitation 0.00 in - - ()
Sea Level Pressure  
Sea Level Pressure 30.21 in    
Wind  
Wind Speed 5 mph (NNE)    
Max Wind Speed 14 mph    
Max Gust Speed 17 mph    
Visibility 12 miles    
Events      
Averages and records for this station are not official NWS values.
T = Trace of Precipitation, MM = Missing Value Source: NWS Daily Summary

Daily Weather History Graph

Daily Weather History Graph

Search for Another Location

Airport or City:

Trip Planner

Search our weather history database for the weather conditions in past years. The results will help you decide how hot, cold, wet, or windy it might be!

Date:

Astronomy

Jun. 21, 2013 Rise Set
Actual Time 6:04 AM EDT 8:35 PM EDT
Civil Twilight 5:34 AM EDT 9:05 PM EDT
Nautical Twilight 4:57 AM EDT 9:41 PM EDT
Astronomical Twilight 4:17 AM EDT 10:22 PM EDT
Moon 6:46 PM EDT (6/21) 4:14 AM EDT (6/21)
Length of Visible Light 15h 30m
Length of Day
14h 31m
Waxing Gibbous, 95% of the Moon is Illuminated
Jun 21
Waxing Gibbous
Jun 23
Full
Jun 30
Last Quarter
Jul 8
New
Jul 15
First Quarter

Hourly Weather History & Observations

Time (EDT) Temp. Heat Index Dew Point Humidity Pressure Visibility Wind Dir Wind Speed Gust Speed Precip Events Conditions
12:56 AM 69.3 °F - 58.3 °F 68% 30.23 in 12.0 mi ENE 4.6 mph - N/A   Clear
1:56 AM 66.7 °F - 58.3 °F 74% 30.23 in 12.0 mi NE 3.5 mph - N/A   Clear
2:56 AM 63.5 °F - 58.3 °F 83% 30.22 in 12.0 mi North 2.3 mph - N/A   Clear
3:56 AM 62.2 °F - 57.7 °F 85% 30.23 in 12.0 mi North 4.6 mph - N/A   Clear
4:56 AM 60.8 °F - 57.6 °F 89% 30.23 in 12.0 mi NNE 4.6 mph - N/A   Clear
6:56 AM 61.2 °F - 56.5 °F 85% 30.25 in 12.0 mi North 3.5 mph - N/A   Clear
8:22 AM 66.2 °F - 59.0 °F 78% 30.24 in 7.0 mi NE 3.5 mph - N/A   Clear
8:55 AM 69.8 °F - 46.4 °F 43% 30.28 in 12.0 mi NNE 5.8 mph - N/A   Clear
8:56 AM 69.8 °F - 46.4 °F 43% 30.28 in 12.0 mi NNE 5.8 mph - N/A   Clear
9:55 AM 77.0 °F - 46.4 °F 34% 30.28 in 12.0 mi NE 4.6 mph - N/A   Clear
10:56 AM 86.0 °F - 42.8 °F 22% 30.28 in 12.0 mi NE 4.6 mph - N/A   Clear
11:56 AM 80.6 °F - 51.8 °F 37% 30.26 in 12.0 mi NE 5.8 mph 15.0 mph N/A   Clear
12:58 PM 80.6 °F - 48.2 °F 32% 30.25 in 12.0 mi NE 11.5 mph 15.0 mph N/A   Clear
1:55 PM 82.4 °F - 50.0 °F 32% 30.26 in 12.0 mi NE 4.6 mph - N/A   Clear
2:55 PM 86.0 °F - 50.0 °F 29% 30.24 in 12.0 mi NNE 4.6 mph - N/A   Clear
4:53 PM 87.8 °F 87.1 °F 59.0 °F 38% 30.24 in 12.0 mi NNE 6.9 mph - N/A   Partly Cloudy
4:56 PM 87.8 °F 87.1 °F 59.0 °F 38% 30.24 in 12.0 mi NNE 6.9 mph - N/A   Partly Cloudy
5:56 PM 84.2 °F 84.4 °F 60.8 °F 45% 29.60 in 12.0 mi East 9.2 mph 17.3 mph N/A   Scattered Clouds
6:58 PM 82.4 °F 82.9 °F 60.8 °F 48% 30.18 in 12.0 mi East 13.8 mph - N/A   Partly Cloudy
7:55 PM 80.6 °F 81.5 °F 60.8 °F 51% 30.19 in 12.0 mi NE 6.9 mph - N/A   Partly Cloudy
8:55 PM 75.2 °F - 60.8 °F 61% 30.19 in 12.0 mi NE 6.9 mph - N/A   Partly Cloudy
9:55 PM 71.6 °F - 64.4 °F 78% 30.19 in 12.0 mi North 4.6 mph - N/A   Partly Cloudy
10:55 PM 69.8 °F - 64.4 °F 83% 30.21 in 12.0 mi NW 4.6 mph - N/A   Partly Cloudy
11:55 PM 69.8 °F - 64.4 °F 83% 30.19 in 12.0 mi NW 4.6 mph - N/A   Partly Cloudy